Celle, Germany

2:29 PM CEST on September 04, 2015 (GMT +0200)
Celle Army | | Change Station
CLOSE
Current Station
Airport
Location: Celle,
Elevation: 171 ft
Nearby Weather Stations

Elev 171 ft 52.60 °N, 10.03 °E | Updated 9 minutes ago

Scattered Clouds
Scattered Clouds
64 °F
Feels Like 64 °F
N
16
Wind Variable Wind from SW

Today
High -- | Low -- °F
--% Chance of Precip.
Yesterday
High -- | Low -- °F
Precip. -- in
6:34 AM 8:02 PM
Waning Gibbous, 60% visible
Pressure 29.89 in
Visibility 6.2 miles
Clouds Scattered Clouds 4600 ft
Dew Point 43 °F
Humidity 45%
Rainfall 0.00 in
Snow Depth Not available.
UV 5 out of 12
Pollen Not available.
Air Quality Not available.
Flu Activity Not available.
METAR ETHC 041220Z 22014KT 9999 SCT046 18/06 Q1012 BLU+
Pressure 29.89 in
Visibility 6.2 miles
Clouds Scattered Clouds 4600 ft
Dew Point 43 °F
Humidity 45%
Rainfall 0.00 in
Snow Depth Not available.
UV 5 out of 12
Pollen Not available.
Air Quality Not available.
Flu Activity Not available.
METAR ETHC 041220Z 22014KT 9999 SCT046 18/06 Q1012 BLU+

10-Day Weather Forecast

×

Almanac

Astronomy

Sep. 04, 2015 Rise Set
Actual Time
Civil Twilight
Nautical Twilight
Astronomical Twilight
Moon
Length of Visible Light
Length of Day
Tomorrow will be .
, % of the Moon is Illuminated

Today's Extremes

Country Highs Country Lows

Community

WunderPhotos

Upload Photos

1,852,160 photos uploaded!

WunderBlogs® & News

Nearby

Air Quality

  Air Quality AQ Index Pollutant
Not available.

Snow Depth

Station Depth Elevation

Earthquake Activity

City Distance Mag. Time & Date
Minimum magnitude displayed is 2.5.

Coastal Water Temperatures

Place Temperature

Stations

Nearby Weather Stations

Station Location Temp. Windchill Dew Point Humidity Wind Precip. Elev Updated Type